Flag for Central African Republic Weather past 2 weeks in Bambari, Central African Republic

Now
88 °F

Scattered clouds.


Feels Like: 96 °F
Forecast: 71 / 88 °F
Wind: 3 mph from North

Location: Bangui Airport

Current Time: Oct 22, 2014 at 5:27:56 PM

Latest Report: Oct 22, 2014 at 5:00 PM


Visibility: N/A

Pressure: 29.77 "Hg

Humidity: 62%

Dew point: 73 °F

Location of BambariLocation

Historic Weather in Bambari — Graph

°F

Bambari temperature yesterday

Maximum temperature yesterday: 81 °F (at 9:00 AM)
Minimum temperature yesterday: 72 °F (at 10:00 AM)
Average temperature yesterday: 74 °F

Past Weeks' High & Low Weather Summary

 TemperatureHumidityPressure
High95 °F (Oct 17, 1:00 PM)100% (Oct 7, 10:00 PM)30.01 "Hg (Oct 7, 10:00 PM)
Low68 °F (Oct 12, 4:00 AM)41% (Oct 17, 1:00 PM)29.74 "Hg (Oct 8, 4:00 PM)
Average79 °F83%29.87 "Hg
* Reported Oct 7 4:00 PM — Oct 22 4:00 PM, Bambari, Weather by CustomWeather, © 2014

Note: Actual official high and low records may vary slightly from our data, if they occured in-between our weather recording intervals... More about our weather records

Advertising

Bambari weather history for previous 24 hours

 ConditionsComfort  
Time TempWeatherWind HumidityBarometerVisibility
4:00 PM
Oct 22
90 °FScattered clouds.2 mph55%29.77 "HgN/A
2:00 PM88 °FScattered clouds.1 mph62%29.83 "HgN/A
1:00 PM88 °FScattered clouds.3 mph62%29.86 "HgN/A
12:00 PM86 °FScattered clouds.5 mph62%29.89 "HgN/A
11:00 AM82 °FScattered clouds.5 mph66%29.92 "HgN/A
10:00 AM79 °FScattered clouds.1 mph79%29.98 "HgN/A
9:00 AM75 °FPartly sunny.1 mph83%29.98 "HgN/A
8:00 AM72 °FMostly cloudy.2 mph94%29.98 "HgN/A
7:00 AM72 °FMostly cloudy.2 mph94%29.98 "HgN/A
6:00 AM70 °FMostly cloudy.No wind100%29.95 "HgN/A
5:00 AM70 °FClear.No wind100%29.92 "Hg10 mi
4:00 AM70 °FClear.No wind100%29.92 "Hg10 mi
3:00 AM70 °FClear.1 mph100%29.92 "Hg10 mi
2:00 AM72 °FOvercast.2 mph94%29.95 "HgN/A
1:00 AM72 °FOvercast.2 mph94%29.95 "HgN/A
12:00 AM72 °FOvercast.No wind94%29.98 "HgN/A
11:00 PM
Oct 21
72 °FPassing clouds.No wind94%29.98 "HgN/A
10:00 PM72 °FPartly cloudy.2 mph94%29.98 "HgN/A
9:00 PM72 °FPartly cloudy.2 mph100%29.95 "Hg5 mi
8:00 PM72 °FPartly cloudy.2 mph94%29.92 "Hg5 mi
7:00 PM72 °FPartly cloudy.2 mph94%29.89 "Hg5 mi
6:00 PM72 °FPartly cloudy.3 mph100%29.83 "Hg5 mi
5:00 PM73 °FBroken clouds.3 mph89%29.83 "HgN/A
Weather by CustomWeather, © 2014

See weather overviewHow to use our weather pages